Domov               UVHVVR             MKGP            O straneh              
ZDRAVSTVENO VARSTVO RASTLIN
  MREŽA AGROMET. POSTAJ
 ► PROGNOSTIČNA OBVESTILA
AGROMETEOROLOŠKI PODATKI -
ARSO
OBVLADOVANJE TVEGANJ ZARADI
NEUGODNIH VREMENSKIH RAZMER
  ► NARAVNE NESREČE
  ► SUŠA/MOČA
  ► NAMAKANJE
  ► ŽLED (gozdarstvo)
KARTOGRAFSKI PRIKAZI
SPLETNE POVEZAVE
PROJEKTI IN PUBLIKACIJE

AGROMETEOROLOŠKA MREŽA: VREMENSKE POSTAJE IN FENOLOŠKA OPAZOVANJA

Pregled podatkov za lokacijo Bizeljsko, meteorološka postaja 38541

Pregled senzorjev na lokaciji

ID Ime Zadnja
vrednost
Datum
zadnje
spremembe
Tip
senzorja
2029 Omočenost lista (U) 0 U 21.5.2018 12:00 A730WET
2030 Padavine (mm) 0 mm 21.5.2018 12:00 Rain-O-Matic
2028 Relativna vlaga 2 m (% RH) 58,32 % RH 21.5.2018 12:00 50YA
2027 Temperatura 2 m (°C) 21,05 °C 21.5.2018 12:00 50YA

Pregled podatkov zadnjih 24 ur

Zap.
št.
Datum in čas Bizeljsko
Omočenost
lista
Padavine Relativna
vlaga
2
m
Temperatura
2
m
1 21.5.2018 12:30
2 21.5.2018 12:00
3 21.5.2018 11:30
4 21.5.2018 11:00 0 0 58,3 21,1
5 21.5.2018 10:30 0 0 58,4 20,9
6 21.5.2018 10:00 0 0 58,5 20,6
7 21.5.2018 09:30 0 0 59,5 20,5
8 21.5.2018 09:00 0 0 60,8 19,8
9 21.5.2018 08:30 0 0 63 19
10 21.5.2018 08:00 0 0 65,2 18
11 21.5.2018 07:30 0 0 66,5 17,1
12 21.5.2018 07:00 0 0 66,1 16,7
13 21.5.2018 06:30 0 0 68,4 15,9
14 21.5.2018 06:00 0 0 69,4 15,4
15 21.5.2018 05:30 0 0 72,9 14,4
16 21.5.2018 05:00 0 0 73,9 14
17 21.5.2018 04:30 0 0 73,7 14,1
18 21.5.2018 04:00 0 0 73 14,2
19 21.5.2018 03:30 0 0 72,1 14,5
20 21.5.2018 03:00 0 0 70,8 14,8
21 21.5.2018 02:30 0 0 70,2 15
22 21.5.2018 02:00 0 0 69 15,5
23 21.5.2018 01:30 0 0 66,9 15,8
24 21.5.2018 01:00 0 0 62,1 16,5
25 21.5.2018 00:30 0 0 58,6 16,8
26 21.5.2018 00:00 0 0 63,2 16,5
27 20.5.2018 23:30 0 0 66,6 16,1
28 20.5.2018 23:00 0 0 68,1 16,1
29 20.5.2018 22:30 0 0 66,9 16,4
30 20.5.2018 22:00 0 0 67,6 16,4
31 20.5.2018 21:30 0 0 69,5 16,2
32 20.5.2018 21:00 0 0 68 16,6
33 20.5.2018 20:30 0 0 61,1 17
34 20.5.2018 20:00 0 0 61,3 17
35 20.5.2018 19:30 0 0 62,1 17,3
36 20.5.2018 19:00 0 0 61,7 17,6
37 20.5.2018 18:30 0 0 59,8 18,5
38 20.5.2018 18:00 0 0 59 18,9
39 20.5.2018 17:30 0 0 54,1 19,3
40 20.5.2018 17:00 0 0 50,6 19,8
41 20.5.2018 16:30 0 0 50,8 20,7
42 20.5.2018 16:00 0 0 53,4 20,5
43 20.5.2018 15:30 0 0 55,1 20,2
44 20.5.2018 15:00 1 0 56,7 19,9
45 20.5.2018 14:30 0 0 55,2 20,3
46 20.5.2018 14:00 0 0 55,1 21,4
47 20.5.2018 13:30 0 0 58,1 20,7
48 20.5.2018 13:00 0 0 61,6 19,9
© 2011 Ministrstvo za kmetijstvo, gozdarstvo in prehrano. Vse pravice pridržane.